Regional Weather Roundup
Issued by NWS

Home | Current Version | Previous Version | Graphics & Text | Print | Product List | Glossary On
Versions: 1 2 3 4 5 6 7 8 9 10 11 12 13 14 15 16 17 18 19 20 21 22 23 24 25 26 27 28 29 30 31 32 33 34 35 36 37 38 39 40 41 42 43 44 45 46 47 48 49 50
378
ASUS44 KJAN 191803
RWRMS

MISSISSIPPI HOURLY WEATHER ROUNDUP
NATIONAL WEATHER SERVICE JACKSON MS
100 PM CDT SAT APR 19 2014

NOTE: "FAIR: INDICATES FEW OR NO CLOUDS BELOW 12,000 FEET WITH NO
SIGNIFICANT WEATHER AND/OR OBSTRUCTIONS TO VISIBILITY.

MSZ001>002-007>008-010>013-018>021-025>028-034>036-191900-
NORTHWEST MISSISSIPPI

CITY           SKY/WX    TMP DP  RH WIND       PRES   REMARKS
CLARKSDALE       N/A     75  48  38 N9        30.21F
CLEVELAND      FAIR      74  52  45 N3        30.19F
GREENWOOD      SUNNY     74  50  42 CALM      30.18F
6HR MIN TEMP:  49; 6HR MAX TEMP:  75;

GREENVILLE     MOSUNNY   75  50  41 N7        30.19F
6HR MIN TEMP:  51; 6HR MAX TEMP:  76;

GRENADA        FAIR      73  46  38 NE10      30.18F
OLIVE BRANCH   MOSUNNY   73  43  33 N10       30.20F
OXFORD         FAIR      73  43  33 NE5       30.20S
TUNICA         CLEAR     73  48  40 N9        30.20F
$$

MSZ003>006-009-014>017-022>024-029>033-037>039-191900-
NORTHEAST MISSISSIPPI

CITY           SKY/WX    TMP DP  RH WIND       PRES   REMARKS
BELMONT        FAIR      74  45  35 N7G18     30.15F
COLUMBUS AFB   SUNNY     77  44  30 N13G18    30.14F
6HR MIN TEMP:  46; 6HR MAX TEMP:  77;

CORINTH        FAIR      73  36  25 NE5G17    30.17F
GOLDN TRIANGLE SUNNY     75  48  38 NE12G18   30.18F
STARKVILLE     FAIR      73  45  35 NW6       30.16F
TUPELO         SUNNY     75  41  29 NE7       30.16F
6HR MIN TEMP:  48; 6HR MAX TEMP:  76;

$$

MSZ040-058-191900-
CENTRAL MISSISSIPPI

CITY           SKY/WX    TMP DP  RH WIND       PRES   REMARKS
JACKSON INTL   MOSUNNY   74  51  44 NE12G17   30.17F
6HR MIN TEMP:  47; 6HR MAX TEMP:  74;

JACKSON HAWKNS SUNNY     75  48  38 N8        30.17F
6HR MIN TEMP:  51; 6HR MAX TEMP:  75;

MERIDIAN KEY   SUNNY     75  47  36 N13G18    30.14F
6HR MIN TEMP:  48; 6HR MAX TEMP:  76;

MERIDIAN NAS   SUNNY     75  47  36 NE12G17   30.14F
6HR MIN TEMP:  49; 6HR MAX TEMP:  75;

RAYMOND        FAIR      73  68  83 E8        30.18F
VICKSBURG      SUNNY     74  53  48 MISG      30.19F
6HR MIN TEMP:  55; 6HR MAX TEMP:  74;

$$

MSZ059>079-191900-
SOUTH MISSISSIPPI

CITY           SKY/WX    TMP DP  RH WIND       PRES   REMARKS
BROOKHAVEN     FAIR      73  50  43 N3        30.18F
COLUMBIA       FAIR      75  50  41 MISG      30.13F
HATTIESBURG    SUNNY     74  50  42 NE13G21   30.14F
6HR MIN TEMP:  50; 6HR MAX TEMP:  75;

MCCOMB         SUNNY     76  48  37 N12       30.15F
6HR MIN TEMP:  50; 6HR MAX TEMP:  76;

NATCHEZ        SUNNY     72  52  49 NW12      30.18F
6HR MIN TEMP:  48; 6HR MAX TEMP:  73;

PINE BELT      MOSUNNY   75  52  43 NE13G20   30.15F
6HR MIN TEMP:  52; 6HR MAX TEMP:  75;

$$

MSZ080>082-191900-
COASTAL MISSISSIPPI

CITY           SKY/WX    TMP DP  RH WIND       PRES   REMARKS
BILOXI         SUNNY     74  51  43 N13       30.10F
6HR MIN TEMP:  55; 6HR MAX TEMP:  74;

PASCAGOULA     SUNNY     74  52  46 N15       30.08F
6HR MIN TEMP:  54; 6HR MAX TEMP:  75;

GULFPORT       SUNNY     78  48  34 N9G22     30.10F
6HR MIN TEMP:  56; 6HR MAX TEMP:  78;

$$



USA.gov is the U.S. government's official web portal to all federal, state and local government web resources and services.